Location: Prestwich
(53.5236°N, 2.2783°W)
Time: 08:20:41
(UTC+00:00)

ISS - Visible Passes

Search period start: 27 January 2021 00:00
Search period end: 06 February 2021 00:00
Orbit: 418 x 421 km, 51.6° (Epoch: 27 January)

Date Brightness Start Highest point End Pass type
(mag) Time Alt. Az. Time Alt. Az. Time Alt. Az.
27 Jan -3.6 18:35:00 10° W 18:38:21 64° S 18:39:13 44° ESE visible
27 Jan -0.4 20:11:45 10° W 20:12:12 13° W 20:12:12 13° W visible
28 Jan -3.4 17:47:43 10° WSW 17:51:03 60° S 17:53:50 14° E visible
28 Jan -2.4 19:24:24 10° W 19:26:49 39° WSW 19:26:49 39° WSW visible
29 Jan -3.4 18:37:03 10° W 18:40:24 59° S 18:41:27 38° SE visible
29 Jan -0.4 20:13:58 10° W 20:14:25 13° W 20:14:25 13° W visible
30 Jan -3.4 17:49:43 10° W 17:53:05 64° S 17:56:07 12° ESE visible
30 Jan -2.2 19:26:31 10° W 19:29:06 32° SW 19:29:06 32° SW visible
31 Jan -2.8 18:39:07 10° W 18:42:22 43° SSW 18:43:49 26° SE visible
31 Jan -0.4 20:16:35 10° WSW 20:16:48 11° WSW 20:16:48 11° WSW visible
01 Feb -3.1 17:51:44 10° W 17:55:03 52° SSW 17:58:21 10° ESE visible
01 Feb -1.6 19:28:50 10° W 19:31:25 20° SSW 19:31:35 20° SSW visible
02 Feb -1.9 18:41:16 10° W 18:44:10 27° SSW 18:46:29 14° SSE visible
03 Feb -2.2 17:53:47 10° W 17:56:54 34° SSW 18:00:00 10° SE visible
03 Feb -0.7 19:32:23 10° SW 19:32:58 10° SW 19:33:34 10° SSW visible
04 Feb -0.9 18:43:49 10° WSW 18:45:48 15° SW 18:47:46 10° S visible
05 Feb -1.1 17:56:00 10° W 17:58:35 20° SSW 18:01:08 10° SSE visible
